Погода в Подосинках

Россия / Смоленская область     55°40′51″N   31°53′38″E
темп.,
°C
ветер,
м/с
пор.,
м/с
влажн.,
%
обл.,
%
осадки,
мм/ч
давл.,
гПа
погр.,
м
25 июля, вс
вс2500:00+13вюв117146 0.0 101814
03:00+11юв22761 0.0 101919
06:00+12ююв22774 0.0 102043
09:00+19ююв12535 0.0 1020430
12:00+24юв11375 0.0 10201989
15:00+26зюз113313 0.0 10192406
18:00+25з223423 0.0 10192377
21:00+18с00560 0.0 102011
26 июля, пн
пн2600:00+16юв116049 0.0 102116
03:00+18ю1157100 0.0 102112
06:00+17ю2265100 0.0 102238
09:00+19ююв136599 0.0 1022108
12:00+26ююв234014 0.0 10221683
15:00+25зюз124542 0.0 1021817
18:00+23юз245490 0.0 1021190
21:00+21ююв225998 0.0 102142
27 июля, вт
вт2700:00+19ю116327 0.0 102215
03:00+16ю11775 0.0 102211
06:00+16ююв11785 0.0 102221
09:00+23ююв24545 0.0 1021462
12:00+27ююв34405 0.0 10202045
15:00+27ю344413 0.0 10191239
18:00+26ююв244976 0.0 10181282
21:00+20ююв2371100 0.0 101758
28 июля, ср
ср2800:00+18юв277299 0.0 1017128
03:00+19ююв31070100 0.0 1016440
06:00+17ююв3998100 1.1 1014401
09:00+17юв41198100 5.4 1012657
12:00+17юв3899100 9.4 1011703
15:00+18ю1599100 11.6 1009315
18:00+20зсз2692100 1.0 1008635
21:00+18зсз379890 2.0 1008337
29 июля, чт
чт2900:00+16зсз279946 0.1 1008229
03:00+15зсз129920 0.1 100836
06:00+16з249930 0.0 1008118
09:00+20з24845 0.1 1007378
12:00+24з346194 1.4 1007969
15:00+18зсз41093100 3.5 1008415
18:00+17зюз379597 0.2 1008344
21:00+16юз25972 0.2 1007132